TimeEST,TemperatureF,Dew PointF,Humidity,Sea Level PressureIn,VisibilityMPH,Wind Direction,Wind SpeedMPH,Gust SpeedMPH,PrecipitationIn,Events,Conditions,WindDirDegrees,DateUTC
12:14 AM,46.4,46.4,100,30.14,6.0,Calm,Calm,-,N/A,Rain,Light Rain,0,2012-12-16 05:14:00
12:18 AM,46.4,46.4,100,30.14,6.0,Calm,Calm,-,N/A,Rain,Light Rain,0,2012-12-16 05:18:00
12:21 AM,46.4,46.4,100,30.13,6.0,NNE,3.5,-,N/A,Rain,Light Rain,20,2012-12-16 05:21:00
12:26 AM,46.4,46.4,100,30.13,6.0,NNW,5.8,-,N/A,Rain,Light Rain,340,2012-12-16 05:26:00
12:34 AM,46.4,46.4,100,30.13,6.0,North,5.8,-,N/A,Rain,Light Rain,10,2012-12-16 05:34:00
12:39 AM,48.2,48.2,100,30.12,8.0,North,4.6,-,N/A,,Light Drizzle,10,2012-12-16 05:39:00
12:45 AM,48.2,48.2,100,30.12,9.0,North,4.6,-,N/A,,Overcast,10,2012-12-16 05:45:00
12:55 AM,47.7,47.7,100,30.12,9.0,North,5.8,-,0.01,,Overcast,350,2012-12-16 05:55:00
1:01 AM,48.2,48.2,100,30.13,8.0,NNW,4.6,-,N/A,,Overcast,340,2012-12-16 06:01:00
1:24 AM,48.2,48.2,100,30.12,9.0,North,5.8,-,N/A,,Overcast,10,2012-12-16 06:24:00
1:55 AM,48.0,48.0,100,30.11,7.0,Calm,Calm,-,N/A,,Overcast,0,2012-12-16 06:55:00
2:01 AM,48.2,48.2,100,30.12,7.0,North,3.5,-,N/A,Rain,Light Rain,360,2012-12-16 07:01:00
2:08 AM,48.2,48.2,100,30.12,8.0,North,4.6,-,N/A,,Light Drizzle,10,2012-12-16 07:08:00
2:12 AM,48.2,48.2,100,30.12,9.0,North,3.5,-,N/A,,Overcast,360,2012-12-16 07:12:00
2:15 AM,48.2,48.2,100,30.12,8.0,North,4.6,-,N/A,Rain,Light Rain,360,2012-12-16 07:15:00
2:22 AM,48.2,48.2,100,30.12,4.0,NE,3.5,-,N/A,Rain,Light Rain,40,2012-12-16 07:22:00
2:23 AM,48.2,48.2,100,30.12,4.0,NE,3.5,-,N/A,Rain,Light Rain,50,2012-12-16 07:23:00
2:30 AM,48.2,48.2,100,30.11,4.0,Calm,Calm,-,N/A,Rain,Light Rain,0,2012-12-16 07:30:00
2:32 AM,48.2,48.2,100,30.11,5.0,Calm,Calm,-,N/A,Rain,Light Rain,0,2012-12-16 07:32:00
2:55 AM,48.2,48.2,100,30.11,6.0,NE,3.5,-,0.01,,Overcast,40,2012-12-16 07:55:00
3:08 AM,48.2,48.2,100,30.09,5.0,East,4.6,-,N/A,Rain,Light Rain,100,2012-12-16 08:08:00
3:10 AM,48.2,48.2,100,30.09,7.0,ESE,4.6,-,N/A,Rain,Light Rain,110,2012-12-16 08:10:00
3:13 AM,48.2,48.2,100,30.09,9.0,East,3.5,-,N/A,,Overcast,100,2012-12-16 08:13:00
3:25 AM,48.2,48.2,100,30.09,10.0,Calm,Calm,-,N/A,,Overcast,0,2012-12-16 08:25:00
3:26 AM,48.2,48.2,100,30.09,10.0,Calm,Calm,-,N/A,Rain,Light Rain,0,2012-12-16 08:26:00
3:29 AM,48.2,48.2,100,30.09,9.0,Calm,Calm,-,N/A,Rain,Light Rain,0,2012-12-16 08:29:00
3:31 AM,48.2,48.2,100,30.09,9.0,Calm,Calm,-,N/A,Rain,Light Rain,0,2012-12-16 08:31:00
3:33 AM,48.2,48.2,100,30.09,7.0,Calm,Calm,-,N/A,Rain,Light Rain,0,2012-12-16 08:33:00
3:36 AM,48.2,48.2,100,30.08,6.0,Calm,Calm,-,N/A,Rain,Light Rain,0,2012-12-16 08:36:00
3:40 AM,48.2,48.2,100,30.08,5.0,Calm,Calm,-,N/A,Rain,Light Rain,0,2012-12-16 08:40:00
3:41 AM,48.2,48.2,100,30.08,5.0,Calm,Calm,-,N/A,Rain,Light Rain,0,2012-12-16 08:41:00
3:55 AM,48.6,48.6,100,30.09,6.0,Calm,Calm,-,0.02,Rain,Light Rain,0,2012-12-16 08:55:00
4:03 AM,48.2,48.2,100,30.09,4.0,NNW,3.5,-,N/A,Rain,Light Rain,330,2012-12-16 09:03:00
4:06 AM,48.2,48.2,100,30.08,4.0,North,3.5,-,N/A,Rain,Light Rain,360,2012-12-16 09:06:00
4:12 AM,48.2,48.2,100,30.08,4.0,NNE,3.5,-,N/A,Rain,Light Rain,20,2012-12-16 09:12:00
4:30 AM,48.2,48.2,100,30.09,4.0,North,4.6,-,N/A,Rain,Light Rain,350,2012-12-16 09:30:00
4:46 AM,48.2,48.2,100,30.08,4.0,North,3.5,-,N/A,Rain,Rain,360,2012-12-16 09:46:00
4:55 AM,48.7,48.7,100,30.08,4.0,North,3.5,-,0.04,Rain,Light Rain,360,2012-12-16 09:55:00
5:01 AM,48.2,48.2,100,30.09,5.0,NNW,3.5,-,N/A,Rain,Light Rain,340,2012-12-16 10:01:00
5:18 AM,48.2,48.2,100,30.08,4.0,NE,5.8,-,N/A,Rain,Light Rain,40,2012-12-16 10:18:00
5:39 AM,48.2,48.2,100,30.10,5.0,Calm,Calm,-,N/A,Rain,Light Rain,0,2012-12-16 10:39:00
5:55 AM,48.6,48.6,100,30.09,4.0,Calm,Calm,-,0.01,Rain,Light Rain,0,2012-12-16 10:55:00
5:57 AM,48.2,48.2,100,30.09,5.0,Calm,Calm,-,N/A,Rain,Light Rain,0,2012-12-16 10:57:00
6:05 AM,48.2,48.2,100,30.08,4.0,Calm,Calm,-,N/A,Rain,Light Rain,0,2012-12-16 11:05:00
6:11 AM,48.2,48.2,100,30.07,2.5,ENE,3.5,-,N/A,Rain,Light Rain,60,2012-12-16 11:11:00
6:20 AM,48.2,48.2,100,30.08,3.0,Calm,Calm,-,N/A,Rain,Light Rain,0,2012-12-16 11:20:00
6:22 AM,48.2,48.2,100,30.09,3.0,Calm,Calm,-,N/A,,Overcast,0,2012-12-16 11:22:00
6:23 AM,48.2,48.2,100,30.09,3.0,Calm,Calm,-,N/A,,Overcast,0,2012-12-16 11:23:00
6:55 AM,48.2,48.2,100,30.08,3.0,NE,4.6,-,0.01,,Overcast,50,2012-12-16 11:55:00
7:16 AM,48.2,48.2,100,30.08,3.0,Calm,Calm,-,N/A,Rain,Light Rain,0,2012-12-16 12:16:00
7:18 AM,48.2,48.2,100,30.08,3.0,Calm,Calm,-,N/A,,Overcast,0,2012-12-16 12:18:00
7:22 AM,48.2,48.2,100,30.08,2.5,Calm,Calm,-,N/A,,Light Drizzle,0,2012-12-16 12:22:00
7:28 AM,48.2,48.2,100,30.08,2.0,Calm,Calm,-,N/A,,Light Drizzle,0,2012-12-16 12:28:00
7:33 AM,48.2,48.2,100,30.08,1.8,Calm,Calm,-,N/A,Rain,Light Rain,0,2012-12-16 12:33:00
7:36 AM,48.2,48.2,100,30.07,1.5,Calm,Calm,-,N/A,Rain,Light Rain,0,2012-12-16 12:36:00
7:42 AM,48.2,48.2,100,30.07,1.2,Calm,Calm,-,N/A,Rain,Light Rain,0,2012-12-16 12:42:00
7:46 AM,48.2,48.2,100,30.07,1.0,Calm,Calm,-,N/A,Rain,Light Rain,0,2012-12-16 12:46:00
7:55 AM,48.2,48.2,100,30.07,0.8,Calm,Calm,-,0.01,Rain,Light Rain,0,2012-12-16 12:55:00
8:01 AM,48.2,48.2,100,30.06,0.5,Calm,Calm,-,N/A,Fog-Rain,Light Rain,0,2012-12-16 13:01:00
8:04 AM,48.2,48.2,100,30.06,0.5,Calm,Calm,-,N/A,Fog-Rain,Light Rain,0,2012-12-16 13:04:00
8:10 AM,48.2,48.2,100,30.06,0.5,Calm,Calm,-,N/A,Fog-Rain,Light Rain,0,2012-12-16 13:10:00
8:11 AM,48.2,48.2,100,30.06,0.8,Calm,Calm,-,N/A,Rain,Light Rain,0,2012-12-16 13:11:00
8:15 AM,48.2,48.2,100,30.06,1.0,Calm,Calm,-,N/A,Rain,Light Rain,0,2012-12-16 13:15:00
8:20 AM,48.2,48.2,100,30.06,0.8,Calm,Calm,-,N/A,Rain,Light Rain,0,2012-12-16 13:20:00
8:27 AM,48.2,48.2,100,30.06,0.8,South,3.5,-,N/A,Rain,Light Rain,170,2012-12-16 13:27:00
8:28 AM,48.2,48.2,100,30.06,1.0,South,3.5,-,N/A,Rain,Light Rain,180,2012-12-16 13:28:00
8:33 AM,48.2,48.2,100,30.05,1.2,Calm,Calm,-,N/A,Rain,Light Rain,0,2012-12-16 13:33:00
8:40 AM,48.2,48.2,100,30.06,1.5,Calm,Calm,-,N/A,Rain,Light Rain,0,2012-12-16 13:40:00
8:43 AM,50.0,50.0,100,30.06,1.8,Calm,Calm,-,N/A,Rain,Light Rain,0,2012-12-16 13:43:00
8:44 AM,50.0,50.0,100,30.06,1.8,NW,3.5,-,N/A,,Overcast,310,2012-12-16 13:44:00
8:55 AM,49.5,49.5,100,30.06,2.5,NW,3.5,-,0.04,,Overcast,320,2012-12-16 13:55:00
8:59 AM,50.0,50.0,100,30.06,1.8,NW,3.5,-,N/A,,Overcast,310,2012-12-16 13:59:00
9:02 AM,50.0,50.0,100,30.07,1.5,Calm,Calm,-,N/A,,Overcast,0,2012-12-16 14:02:00
9:11 AM,50.0,50.0,100,30.06,1.2,WNW,3.5,-,N/A,,Overcast,300,2012-12-16 14:11:00
9:14 AM,50.0,50.0,100,30.07,1.0,WNW,3.5,-,N/A,,Overcast,300,2012-12-16 14:14:00
9:19 AM,50.0,50.0,100,30.07,0.8,WNW,3.5,-,N/A,,Overcast,300,2012-12-16 14:19:00
9:20 AM,50.0,50.0,100,30.07,0.8,WNW,3.5,-,N/A,,Overcast,300,2012-12-16 14:20:00
9:37 AM,50.0,50.0,100,30.07,0.8,Calm,Calm,-,N/A,,Overcast,0,2012-12-16 14:37:00
9:39 AM,50.0,50.0,100,30.07,1.0,Calm,Calm,-,N/A,,Overcast,0,2012-12-16 14:39:00
9:55 AM,50.0,50.0,100,30.07,1.0,Calm,Calm,-,N/A,,Overcast,0,2012-12-16 14:55:00
10:00 AM,50.0,50.0,100,30.07,1.2,Calm,Calm,-,N/A,,Overcast,0,2012-12-16 15:00:00
10:06 AM,50.0,50.0,100,30.06,1.5,Calm,Calm,-,N/A,,Overcast,0,2012-12-16 15:06:00
10:09 AM,50.0,50.0,100,30.06,1.8,Calm,Calm,-,N/A,,Overcast,0,2012-12-16 15:09:00
10:15 AM,50.0,50.0,100,30.06,3.0,Calm,Calm,-,N/A,,Overcast,0,2012-12-16 15:15:00
10:45 AM,51.8,51.8,100,30.04,5.0,Calm,Calm,-,N/A,,Overcast,0,2012-12-16 15:45:00
10:55 AM,52.0,52.0,100,30.04,5.0,SSW,3.5,-,N/A,,Overcast,200,2012-12-16 15:55:00
11:16 AM,53.6,53.6,100,30.01,8.0,South,5.8,-,N/A,,Overcast,190,2012-12-16 16:16:00
11:25 AM,53.6,53.6,100,30.01,10.0,SSW,6.9,-,N/A,,Overcast,200,2012-12-16 16:25:00
11:36 AM,53.6,53.6,100,30.01,10.0,WSW,8.1,-,N/A,,Overcast,240,2012-12-16 16:36:00
11:48 AM,53.6,53.6,100,30.01,10.0,SW,10.4,-,N/A,,Overcast,220,2012-12-16 16:48:00
11:55 AM,54.0,54.0,100,30.00,10.0,SW,9.2,-,N/A,,Overcast,220,2012-12-16 16:55:00
12:55 PM,54.9,54.9,100,29.99,10.0,SW,8.1,-,N/A,,Overcast,230,2012-12-16 17:55:00
1:05 PM,55.4,55.4,100,29.99,10.0,WSW,8.1,-,N/A,,Overcast,240,2012-12-16 18:05:00
1:14 PM,55.4,55.4,100,29.99,10.0,WSW,6.9,-,N/A,,Overcast,240,2012-12-16 18:14:00
1:55 PM,55.6,54.3,96,29.97,10.0,SW,8.1,-,N/A,,Overcast,220,2012-12-16 18:55:00
2:55 PM,55.8,53.8,93,29.94,10.0,South,6.9,-,N/A,,Overcast,190,2012-12-16 19:55:00
3:30 PM,55.4,53.6,94,29.96,10.0,SSW,3.5,-,N/A,Rain,Light Rain,210,2012-12-16 20:30:00
3:55 PM,55.2,53.6,94,29.97,9.0,SSW,4.6,-,0.00,Rain,Light Rain,210,2012-12-16 20:55:00
3:56 PM,55.4,53.6,94,29.96,9.0,South,3.5,-,N/A,Rain,Light Rain,190,2012-12-16 20:56:00
4:08 PM,55.4,53.6,94,29.97,10.0,South,3.5,-,N/A,,Overcast,190,2012-12-16 21:08:00
4:17 PM,55.4,53.6,94,29.97,10.0,South,3.5,-,N/A,Rain,Light Rain,170,2012-12-16 21:17:00
4:25 PM,55.4,53.6,94,29.97,10.0,South,3.5,-,N/A,Rain,Light Rain,180,2012-12-16 21:25:00
4:36 PM,53.6,53.6,100,29.97,10.0,SSW,3.5,-,N/A,Rain,Light Rain,200,2012-12-16 21:36:00
4:47 PM,53.6,53.6,100,29.97,10.0,SW,3.5,-,N/A,Rain,Light Rain,220,2012-12-16 21:47:00
4:55 PM,54.5,54.5,100,29.97,10.0,SSW,3.5,-,0.01,Rain,Light Rain,210,2012-12-16 21:55:00
5:03 PM,55.4,55.4,100,29.97,9.0,SSW,4.6,-,N/A,Rain,Light Rain,200,2012-12-16 22:03:00
5:26 PM,53.6,53.6,100,29.95,10.0,South,5.8,-,N/A,Rain,Light Rain,190,2012-12-16 22:26:00
5:40 PM,53.6,53.6,100,29.94,10.0,South,4.6,-,N/A,,Partly Cloudy,180,2012-12-16 22:40:00
5:55 PM,53.8,53.8,100,29.94,10.0,South,4.6,-,0.01,,Scattered Clouds,180,2012-12-16 22:55:00
6:10 PM,53.6,53.6,100,29.93,10.0,South,4.6,-,N/A,Rain,Light Rain,180,2012-12-16 23:10:00
6:18 PM,53.6,53.6,100,29.93,9.0,South,4.6,-,N/A,Rain,Light Rain,190,2012-12-16 23:18:00
6:21 PM,53.6,53.6,100,29.93,9.0,South,5.8,-,N/A,,Overcast,180,2012-12-16 23:21:00
6:24 PM,53.6,53.6,100,29.93,9.0,South,5.8,-,N/A,,Overcast,180,2012-12-16 23:24:00
6:29 PM,53.6,53.6,100,29.93,9.0,South,6.9,-,N/A,,Overcast,180,2012-12-16 23:29:00
6:39 PM,53.6,53.6,100,29.93,10.0,SSW,5.8,-,N/A,,Overcast,200,2012-12-16 23:39:00
6:55 PM,54.3,54.3,100,29.93,10.0,South,10.4,-,0.00,,Overcast,190,2012-12-16 23:55:00
7:55 PM,54.7,54.7,100,29.92,10.0,SSW,10.4,-,N/A,,Overcast,200,2012-12-17 00:55:00
8:01 PM,55.4,55.4,100,29.92,10.0,SSW,8.1,-,N/A,Rain,Light Rain,200,2012-12-17 01:01:00
8:06 PM,55.4,55.4,100,29.92,10.0,SSW,9.2,-,N/A,Rain,Light Rain,200,2012-12-17 01:06:00
8:45 PM,55.4,55.4,100,29.91,10.0,SSW,8.1,-,N/A,Rain,Light Rain,210,2012-12-17 01:45:00
8:49 PM,55.4,55.4,100,29.91,10.0,SSW,8.1,-,N/A,,Light Drizzle,210,2012-12-17 01:49:00
8:55 PM,54.7,54.7,100,29.91,10.0,SSW,8.1,-,0.01,,Overcast,210,2012-12-17 01:55:00
9:11 PM,55.4,55.4,100,29.91,10.0,SSW,8.1,-,N/A,Rain,Light Rain,210,2012-12-17 02:11:00
9:29 PM,55.4,55.4,100,29.91,10.0,SSW,8.1,-,N/A,Rain,Light Rain,210,2012-12-17 02:29:00
9:55 PM,55.2,55.2,100,29.91,9.0,South,5.8,-,0.00,Rain,Light Rain,190,2012-12-17 02:55:00
10:16 PM,55.4,55.4,100,29.91,10.0,SSW,5.8,-,N/A,Rain,Light Rain,210,2012-12-17 03:16:00
10:55 PM,55.6,55.6,100,29.90,10.0,SSW,5.8,-,0.01,Rain,Light Rain,200,2012-12-17 03:55:00
11:55 PM,55.6,55.6,100,29.89,9.0,SSW,5.8,-,0.01,Rain,Light Rain,210,2012-12-17 04:55:00